[[{"header":{"parameterUnit":"m.s-1","parameterCategory":1,"la1":30.2991,"la2":30.254,"lo1":-89.0895,"lo2":-89.0444,"dy":0.0017,"dx":0.0017,"nx":28,"ny":28,"refTime":"2026-02-27T03:00:00:Z","depth":0,"parameterNumber":2,"parameterNumberName":"U-component_of_WINDS"},"data":[0,0,0,0,0,0,0,0,0,0,0,0,0,0,0,0,0,0,0,0,0,0,0,0,0,0,0,0,0,0,0,0,0,0,0,0,0,0,0,0,0,0,0,0,0,0,0,0,0,0,0,0,0,0,0,0,0,0,-2.1086,-2.1087,0,-2.1203,-2.1204,-2.1206,-2.1202,-2.1201,-2.1199,-2.1197,-2.1322,-2.1327,-2.1332,0,0,0,0,0,0,0,0,0,0,0,0,0,-2.0865,-2.0869,-2.1086,-2.1087,-2.1089,-2.1203,-2.1204,-2.1206,-2.1203,-2.1201,-2.1199,-2.1197,-2.1321,-2.1327,-2.1332,0,0,0,0,0,0,0,0,0,0,0,0,0,-2.0969,-2.087,-2.1086,-2.1101,-2.1103,-2.1203,-2.1205,-2.1206,-2.1203,-2.1201,-2.1198,-2.1196,-2.1319,-2.1326,-2.1333,-2.1427,0,0,-2.1355,-2.1358,0,0,0,0,0,0,0,0,-2.0963,-2.0977,-2.1097,-2.11,-2.1103,-2.1185,-2.1172,-2.1281,-2.1204,-2.1165,-2.1197,-2.1195,-2.1279,-2.129,-2.1317,-2.1433,-2.1438,-2.1356,-2.136,-2.1364,-2.1366,0,0,0,0,0,0,0,-2.0956,-2.0972,-2.1132,-2.1099,-2.1102,-2.1103,-2.1116,-2.1193,-2.1235,-2.1168,-2.1168,-2.1182,-2.128,-2.131,-2.132,-2.144,-2.1356,-2.1362,-2.1367,-2.137,-2.1638,-2.164,0,0,0,0,0,0,-2.0945,-2.0966,-2.1129,-2.1136,-2.1026,-2.1109,-2.1123,-2.1162,-2.1234,-2.1242,-2.1184,-2.1181,-2.1299,-2.1311,-2.1324,-2.1438,-2.1363,-2.137,-2.1374,-2.1635,-2.1638,-2.1641,0,0,0,0,0,0,-2.094,-2.0959,-2.1124,-2.1051,-2.1072,-2.1116,-2.1159,-2.1165,-2.1195,-2.1245,-2.1253,-2.1206,-2.1297,-2.1314,-2.1401,-2.1442,-2.1374,-2.138,-2.1632,-2.1636,-2.164,-2.1665,0,0,0,0,0,0,-2.0934,-2.0958,-2.0992,-2.1052,-2.1076,-2.1197,-2.1162,-2.1169,-2.1207,-2.1204,-2.1268,-2.1277,-2.1297,-2.139,-2.1408,-2.1451,-2.1386,-2.1628,-2.1634,-2.1639,-2.1661,-2.167,-2.1677,0,0,0,0,0,-2.0926,-2.0996,-2.0994,-2.1014,-2.112,-2.1199,-2.1213,-2.1233,-2.121,-2.1246,-2.1279,-2.1275,-2.1435,-2.1399,-2.1419,-2.1465,-2.1626,-2.1632,-2.1638,-2.1657,-2.1668,-2.1677,0,0,0,0,0,0,-2.0942,-2.1004,-2.1003,-2.1094,-2.1141,-2.1198,-2.1244,-2.1244,-2.1301,-2.1296,-2.1321,-2.1335,-2.1422,-2.1452,-2.1411,-2.1559,-2.1528,-2.1538,-2.1535,-2.1546,-2.1554,-2.1544,-2.1392,0,0,0,0,0,-2.0956,-2.1013,-2.1066,-2.1141,-2.1165,-2.12,-2.1236,-2.1247,-2.1298,-2.1318,-2.1357,-2.1408,-2.147,-2.151,-2.157,-2.1666,-2.168,-2.1708,-2.1716,-2.1722,-2.1731,-2.1784,-2.1796,-2.1662,-2.1662,-2.1662,0,0,-2.0986,-2.1027,-2.1062,-2.1145,-2.1183,-2.1243,-2.1217,-2.1282,-2.1328,-2.1329,-2.1412,-2.1443,-2.1501,-2.1593,-2.1635,-2.1621,-2.1771,-2.173,-2.1735,-2.174,-2.1791,-2.1804,-2.1815,-2.1666,-2.1665,-2.1665,0,0,-2.107,-2.1107,-2.1173,-2.1212,-2.1269,-2.1292,-2.1308,-2.1366,-2.1386,-2.147,-2.1471,-2.1527,-2.1633,-2.1674,-2.1709,-2.181,-2.1808,-2.1829,-2.1871,-2.1922,-2.1933,-2.1942,-2.1977,-2.1989,-2.1837,-2.1838,-2.1838,0,-2.11,-2.1189,-2.1208,-2.1273,-2.131,-2.1312,-2.138,-2.1417,-2.1492,-2.1518,-2.1501,-2.1633,-2.1673,-2.1774,-2.1798,-2.1827,-2.1846,-2.1821,-2.1929,-2.1939,-2.1948,-2.1982,-2.1995,-2.184,-2.1839,-2.1839,-2.1839,0,-2.1223,-2.1285,-2.1332,-2.1401,-2.1444,-2.151,-2.1541,-2.1582,-2.159,-2.1616,-2.1702,-2.1749,-2.1818,-2.1844,-2.1853,-2.1946,-2.1935,-2.1924,-2.1892,-2.1963,-2.1994,-2.2008,-2.1842,-2.1842,-2.1841,-2.1841,0,0,-2.1319,-2.1398,-2.1415,-2.1446,-2.151,-2.1559,-2.1626,-2.1692,-2.1726,-2.1779,-2.1835,-2.1925,-2.1915,-2.1954,-2.1969,-2.2014,-2.2089,-2.1997,-2.1999,-2.2011,-2.2194,-2.2201,-2.2215,-2.209,-2.2092,-2.2094,-2.2189,0,-2.1409,-2.1525,-2.1544,-2.1647,-2.1705,-2.1708,-2.1767,-2.1813,-2.184,-2.1894,-2.1924,-2.1986,-2.1968,-2.1992,-2.2037,-2.207,-2.2126,-2.2064,-2.2143,-2.2146,-2.2126,-2.2232,-2.224,-2.2327,-2.2201,-2.2204,-2.2205,0,-2.1528,-2.1581,-2.1688,-2.1744,-2.1769,-2.1821,-2.1882,-2.1934,-2.1987,-2.2003,-2.2047,-2.2057,-2.2128,-2.2095,-2.2193,-2.2151,-2.2185,-2.2206,-2.221,-2.2217,-2.2178,-2.2241,-2.2355,-2.2367,-2.2225,-2.2224,-2.2222,0,-2.1586,-2.1684,-2.1761,-2.1788,-2.1855,-2.1891,-2.1921,-2.1972,-2.201,-2.2065,-2.209,-2.2154,-2.2188,-2.2238,-2.2264,-2.2238,-2.2361,-2.233,-2.2377,-2.2376,-2.2401,-2.2399,-2.2521,-2.2426,-2.2425,-2.2425,-2.2425,0,-2.1683,-2.1748,-2.1787,-2.1834,-2.1908,-2.1931,-2.2004,-2.2034,-2.2079,-2.2133,-2.2142,-2.2193,-2.2226,-2.2282,-2.2304,-2.2382,-2.2398,-2.2413,-2.2418,-2.2411,-2.2409,-2.2433,-2.2427,-2.2429,-2.2428,-2.2427,-2.2427,0,-2.1759,-2.1787,-2.1871,-2.1927,-2.1943,-2.1995,-2.2044,-2.2091,-2.2117,-2.2185,-2.2203,-2.2245,-2.2312,-2.2343,-2.2427,-2.2441,-2.2529,-2.2531,-2.251,-2.2512,-2.2556,-2.2551,-2.2696,-2.2716,-2.2609,-2.261,-2.2611,0,-2.1817,-2.1868,-2.1929,-2.1964,-2.1995,-2.2053,-2.2091,-2.2117,-2.2157,-2.2221,-2.226,-2.2327,-2.2381,-2.2487,-2.2527,-2.259,-2.2593,-2.2639,-2.2602,-2.2594,-2.2592,-2.2588,-2.2593,-2.2645,-2.2646,-2.2647,-2.2648,0,-2.1919,-2.1931,-2.1985,-2.2044,-2.2089,-2.2138,-2.2186,-2.2215,-2.2249,-2.2294,-2.2361,-2.2403,-2.2487,-2.2553,-2.2619,-2.2652,-2.2656,-2.2659,-2.2673,-2.2666,-2.2652,-2.2659,-2.2527,-2.2656,-2.2655,-2.2654,-2.2654,-2.2654,-2.1987,-2.2032,-2.2081,-2.2141,-2.218,-2.2224,-2.227,-2.2302,-2.2358,-2.2426,-2.2439,-2.251,-2.2563,-2.2652,-2.2687,-2.2744,-2.2734,-2.2754,-2.2759,-2.2763,-2.2765,-2.2644,-2.2757,-2.2757,-2.2757,-2.2756,-2.2756,0,-2.2088,-2.212,-2.2175,-2.224,-2.2288,-2.2286,-2.2339,-2.238,-2.2441,-2.249,-2.2542,-2.2619,-2.2684,-2.2728,-2.2793,-2.283,-2.2834,-2.2846,-2.2843,-2.2851,-2.2771,-2.2752,-2.2842,-2.2842,-2.2842,-2.2842,-2.2842,-2.2842,-2.2145,-2.222,-2.2238,-2.2332,-2.2364,-2.2432,-2.2462,-2.2504,-2.2542,-2.2627,-2.2679,-2.2707,-2.2754,-2.2823,-2.2882,-2.2894,-2.2917,-2.293,-2.2941,-2.2865,-2.2856,-2.2848,-2.2829,-2.2935,-2.2935,-2.3015,-2.3016,-2.3017]},{"header":{"parameterUnit":"m.s-1","parameterCategory":1,"la1":30.2991,"la2":30.254,"lo1":-89.0895,"lo2":-89.0444,"dy":0.0017,"dx":0.0017,"nx":28,"ny":28,"refTime":"2026-02-27T03:00:00:Z","depth":0,"parameterNumber":3,"parameterNumberName":"V-component_of_WINDS"},"data":[0,0,0,0,0,0,0,0,0,0,0,0,0,0,0,0,0,0,0,0,0,0,0,0,0,0,0,0,0,0,0,0,0,0,0,0,0,0,0,0,0,0,0,0,0,0,0,0,0,0,0,0,0,0,0,0,0,0,0.9527,0.9528,0,0.9654,0.9655,0.9656,0.9755,0.9756,0.9757,0.9758,0.9885,0.9888,0.989,0,0,0,0,0,0,0,0,0,0,0,0,0,0.9368,0.937,0.9527,0.9528,0.953,0.9653,0.9655,0.9657,0.9755,0.9756,0.9757,0.9758,0.9884,0.9887,0.989,0,0,0,0,0,0,0,0,0,0,0,0,0,0.946,0.9371,0.9526,0.9594,0.9601,0.9653,0.9655,0.9657,0.9755,0.9756,0.9758,0.9759,0.9884,0.9887,0.9891,0.9885,0,0,0.9902,0.9904,0,0,0,0,0,0,0,0,0.9454,0.9465,0.9582,0.9589,0.9598,0.969,0.9646,0.9734,0.9754,0.9696,0.9758,0.976,0.9819,0.9828,0.9849,0.9891,0.9897,0.9903,0.9905,0.9907,0.9908,0,0,0,0,0,0,0,0.9448,0.9461,0.9577,0.9584,0.9593,0.9617,0.9632,0.9663,0.9748,0.9701,0.9709,0.9723,0.9823,0.9845,0.9852,0.9899,0.9903,0.9906,0.9908,0.991,0.9944,0.9942,0,0,0,0,0,0,0.9431,0.9455,0.9573,0.9581,0.9528,0.9619,0.9635,0.9659,0.9748,0.9763,0.9721,0.9727,0.9838,0.9848,0.9857,0.9858,0.9907,0.991,0.9912,0.9945,0.9943,0.9942,0,0,0,0,0,0,0.9428,0.9441,0.9568,0.952,0.9538,0.962,0.9646,0.9661,0.9682,0.9763,0.9778,0.9728,0.9839,0.9852,0.9878,0.9863,0.9912,0.9915,0.9947,0.9945,0.9943,0.9857,0,0,0,0,0,0,0.9423,0.9439,0.9438,0.9519,0.954,0.9587,0.9645,0.9662,0.9689,0.9697,0.9773,0.9787,0.9841,0.9872,0.9882,0.9869,0.9918,0.9948,0.9946,0.9943,0.9862,0.9853,0.9845,0,0,0,0,0,0.9417,0.9409,0.9438,0.9451,0.9541,0.9586,0.9598,0.9661,0.9687,0.9687,0.9739,0.9785,0.9863,0.9874,0.9886,0.9874,0.995,0.9946,0.9944,0.9866,0.9854,0.9845,0,0,0,0,0,0,0.9323,0.942,0.9454,0.9472,0.952,0.9602,0.9604,0.9647,0.9688,0.9694,0.977,0.9786,0.9804,0.9842,0.9852,0.9874,0.9912,0.9911,0.9849,0.9839,0.983,0.9821,0.9921,0,0,0,0,0,0.9305,0.9334,0.9417,0.9425,0.9447,0.9521,0.9543,0.9588,0.964,0.9661,0.9715,0.9763,0.9799,0.9821,0.9858,0.9867,0.9885,0.9865,0.9857,0.9849,0.9848,0.9856,0.9848,0.9932,0.9932,0.9932,0,0,0.9267,0.9324,0.9337,0.9407,0.945,0.9478,0.9537,0.9564,0.9586,0.9665,0.9693,0.9734,0.9793,0.9811,0.9821,0.9843,0.9829,0.9845,0.9839,0.9842,0.9852,0.9844,0.9837,0.993,0.993,0.9931,0,0,0.9213,0.9258,0.927,0.9311,0.9375,0.9424,0.9427,0.9503,0.9534,0.9563,0.9623,0.9649,0.9709,0.9749,0.9777,0.9737,0.9781,0.9747,0.9703,0.971,0.9703,0.9698,0.9684,0.9678,0.9745,0.9745,0.9745,0,0.9158,0.9203,0.927,0.9294,0.9323,0.9396,0.9409,0.9445,0.9517,0.9536,0.9559,0.9636,0.9681,0.9709,0.9699,0.9719,0.9725,0.9739,0.9699,0.9694,0.969,0.9678,0.9672,0.9741,0.9741,0.9741,0.9742,0,0.9132,0.9162,0.9164,0.9233,0.9262,0.9279,0.935,0.9371,0.9412,0.9459,0.9488,0.9545,0.9595,0.9605,0.9645,0.9639,0.965,0.9684,0.9725,0.9676,0.9666,0.9662,0.9734,0.9736,0.9737,0.9738,0,0,0.9024,0.9129,0.9129,0.9161,0.9237,0.9261,0.9282,0.9332,0.9349,0.9395,0.9415,0.9464,0.9496,0.9528,0.9574,0.958,0.9545,0.9614,0.9617,0.96,0.9542,0.9516,0.951,0.9574,0.9574,0.9573,0.9537,0,0.8982,0.9024,0.9086,0.9107,0.9136,0.9206,0.9224,0.9271,0.9315,0.9346,0.9394,0.9427,0.9468,0.9487,0.9496,0.9547,0.9535,0.9551,0.9593,0.9594,0.9577,0.9505,0.9478,0.9441,0.9534,0.9533,0.9533,0,0.8939,0.8983,0.9008,0.9081,0.9096,0.9111,0.9162,0.919,0.9245,0.9276,0.9312,0.9361,0.9386,0.9422,0.9457,0.9467,0.9488,0.9515,0.9515,0.9523,0.9561,0.9511,0.9431,0.9426,0.9527,0.9528,0.9528,0,0.8859,0.8924,0.8947,0.8972,0.9058,0.9067,0.9103,0.916,0.9186,0.923,0.9248,0.9294,0.9319,0.9353,0.9413,0.9433,0.9442,0.9483,0.9469,0.9467,0.9469,0.9468,0.9392,0.948,0.948,0.948,0.948,0,0.8807,0.8819,0.8912,0.8927,0.8943,0.9013,0.9026,0.9069,0.9118,0.9142,0.9204,0.9225,0.9303,0.9333,0.938,0.9402,0.9413,0.9439,0.9452,0.9434,0.9431,0.945,0.9454,0.9479,0.9479,0.9479,0.948,0,0.872,0.8783,0.8813,0.8892,0.8912,0.892,0.8987,0.9004,0.9051,0.908,0.9091,0.9164,0.9202,0.9266,0.9322,0.9354,0.9368,0.9388,0.9349,0.9357,0.934,0.9341,0.9275,0.927,0.9359,0.9358,0.9357,0,0.8683,0.8695,0.8774,0.8795,0.8829,0.8861,0.8888,0.8957,0.8982,0.9046,0.9055,0.9098,0.9136,0.9194,0.9252,0.9295,0.9318,0.9292,0.9325,0.9307,0.9319,0.9318,0.932,0.9284,0.9283,0.9282,0.9281,0,0.8611,0.8642,0.8679,0.8726,0.8757,0.8797,0.8841,0.8854,0.8933,0.8958,0.8998,0.9028,0.9085,0.9127,0.9179,0.9216,0.9261,0.927,0.9269,0.9252,0.9229,0.9242,0.933,0.9271,0.9272,0.9273,0.9273,0.9274,0.855,0.8563,0.8622,0.866,0.87,0.874,0.8759,0.8809,0.8844,0.8897,0.8935,0.8972,0.9027,0.9101,0.9135,0.9165,0.9186,0.9184,0.9184,0.9183,0.9177,0.9223,0.9175,0.9175,0.9175,0.9176,0.9176,0,0.8482,0.8523,0.8558,0.8617,0.8648,0.8688,0.8738,0.8761,0.8793,0.8841,0.8877,0.8923,0.8964,0.9025,0.9071,0.9083,0.9105,0.9093,0.9094,0.9101,0.9156,0.9152,0.9075,0.9075,0.9075,0.9075,0.9075,0.9075,0.8451,0.8476,0.8513,0.8558,0.8599,0.8637,0.8662,0.8699,0.8737,0.8786,0.882,0.886,0.8913,0.8963,0.9002,0.9019,0.9034,0.9015,0.9038,0.9088,0.9097,0.9106,0.9104,0.9017,0.9017,0.8982,0.8982,0.8981]}]]